User: anonymous   Login
Location: Boca de Tacagua
(10.5333°N, 66.9833°W)
Time: 05:06:18
(UTC+00:00)
Language:

deb Chang Zheng 4 - Orbit

View from above orbital plane
View from above orbital plane
View from above satellite
View from above satellite

Ground track
Ground track

The orbit data is extracted from the following two-line orbital elements,

1 20847U 90081K   22144.66136580  .00019984  00000-0  19970-2 0  9996
2 20847  98.5551 180.6944 0014948  49.5004 310.7512 14.91434516672941
Epoch (UTC): 24 May 2022 15:52:22
Eccentricity: 0.0014948
inclination: 98.5551°
perigee height: 583 km
apogee height: 604 km
right ascension of ascending node: 180.6944°
argument of perigee: 49.5004°
revolutions per day: 14.91434516
mean anomaly at epoch: 310.7512°
orbit number at epoch: 67294

The dashed part of the orbit path shows where the satellite is in the earth's shadow,  

DLR